Terminal Aerodrome Forecast
Issued by NWS

Home | Current Version | Previous Version | Text Only | Print | Product List | Glossary On
Versions: 1 2 3 4 5 6 7 8 9 10 11 12 13 14 15 16 17 18 19 20 21 22 23 24 25 26
000
FTUS45 KGJT 162330
TAFTEX
TAF
KTEX 162330Z 1700/1724 31005KT P6SM SCT080 BKN140
     FM170300 13003KT P6SM SCT110 BKN180
     FM171900 27007KT P6SM VCTS FEW080CB SCT140=

USA.gov is the U.S. government's official web portal to all federal, state and local government web resources and services.